Regional Weather Roundup
Issued by NWS

Home | Current Version | Previous Version | Graphics & Text | Print | Product List | Glossary On
Versions: 1 2 3 4 5 6 7 8 9 10 11 12 13 14 15 16 17 18 19 20 21 22 23 24 25 26 27 28 29 30 31 32 33 34 35 36 37 38 39 40 41 42 43 44 45 46 47 48 49 50
000
ASUS45 KABQ 291510
RWRNM
NEW MEXICO REGIONAL WEATHER ROUNDUP
NATIONAL WEATHER SERVICE ALBUQUERQUE NM
900 AM MDT WED JUL 29 2015

NOTE: "FAIR" MEANS FEW OR NO CLOUDS BELOW 12,000 FEET AGL WITH NO
       SIGNIFICANT WEATHER OR OBSTRUCTIONS TO VISION.

      THIS PRODUCT IS RELEASED AS TWO VERSIONS.  ONE VERSION NEAR
      THE TOP OF THE HOUR CONTAINING PRELIMINARY DATA FROM ALBUQUERQUE
      AND OTHER STATIONS.  A FINAL VERSION WITH ADDITIONAL DATA IS
      ISSUED ABOUT 10 MINUTES AFTER THE HOUR.

NMZ501-503-504-510>518-291600-
NORTHWEST PLATEAU/NORTHCENTRAL MOUNTAINS

CITY           SKY/WX    TMP DP  RH WIND       PRES   REMARKS
FARMINGTON     SUNNY     75  46  35 E9        30.26R
LOS ALAMOS     CLOUDY    64  52  66 S6        30.43R
SANTA FE       CLOUDY    68  53  58 S5        30.36R
TAOS           MOSUNNY   66  45  45 CALM      30.44S
ANGEL FIRE     FAIR      53  53  97 CALM      30.51S

$$
NMZ402-403-502-505>509-291600-
WESTCENTRAL MOUNTAINS/SOUTHWEST MOUNTAINS

CITY           SKY/WX    TMP DP  RH WIND       PRES   REMARKS
GALLUP         CLOUDY    71  50  47 S5        30.34S
GRANTS         CLOUDY    67  56  68 S8        30.38R
SILVER CITY      N/A     72  57  60 NE6       30.29S

$$
NMZ407-409-411-412-291600-
SOUTHERN DESERTS

CITY           SKY/WX    TMP DP  RH WIND       PRES   REMARKS
LORDSBURG      PTSUNNY   72  61  68 SE5       30.19S
DEMING         CLOUDY    73  61  65 CALM      30.21R
LAS CRUCES     CLOUDY    71  62  74 N6        30.22F
ALAMOGORDO     PTSUNNY   72  63  73 CALM      30.23S
T OR C         CLOUDY    71  64  78 S3        30.25R

$$
NMZ519>523-291600-
CENTRAL VALLEYS/CENTRAL HIGHLANDS

CITY           SKY/WX    TMP DP  RH WIND       PRES   REMARKS
ALBUQUERQUE    PTSUNNY   72  55  55 N6        30.31R
DOUBLE EAGLE   CLOUDY    70  57  64 S6        30.34R
MORIARTY ARPT    N/A     67  55  65 CALM      30.37S
CLINES CORNERS PTSUNNY   68  53  58 CALM      30.40R
BELEN          CLOUDY    74  56  51 SE6       30.29S
SOCORRO        CLOUDY    76  56  50 CALM      30.26R

$$
NMZ524>526-539-540-291600-
SOUTHCENTRAL MOUNTAINS

CITY           SKY/WX    TMP DP  RH WIND       PRES   REMARKS
RUIDOSO          N/A    N/A N/A N/A MISG        N/A

$$
NMZ527>531-291600-
NORTHEAST HIGHLANDS/NORTHEAST PLAINS

CITY           SKY/WX    TMP DP  RH WIND       PRES   REMARKS
LAS VEGAS      PTSUNNY   62  56  80 N5        30.40S
RATON          SUNNY     69  55  60 E10       30.37R
CLAYTON        SUNNY     71  59  65 NE15      30.35R

$$
NMZ532>537-291600-
EASTCENTRAL PLAINS

CITY           SKY/WX    TMP DP  RH WIND       PRES   REMARKS
TUCUMCARI      MOSUNNY   74  63  68 NE12      30.25R
CANNON AFB     SUNNY     75  65  71 NE6       30.25R
CLOVIS AIRPORT SUNNY     73  64  73 NE13      30.27R

$$
NMZ028-029-538-291600-
SOUTHEAST PLAINS

CITY           SKY/WX    TMP DP  RH WIND       PRES   REMARKS
ROSWELL        PTSUNNY   77  64  64 NE3       30.21R
ARTESIA        MOSUNNY   79  66  65 N7        30.20S
CARLSBAD       MOSUNNY   81  64  56 N7        30.16R
HOBBS          SUNNY     79  61  53 N10       30.20R


$$



USA.gov is the U.S. government's official web portal to all federal, state and local government web resources and services.